DateTimeUTC,F1_A11,F1_S11,BsB_S11,BsG_S11,BsR_S11,BbsB_S11,BbsG_S11,BbsR_S11,BaB_A11,BaG_A11,BaR_A11,Tu_S11,T_S11,Uu_S11,U_S11,P_S11,T1_A11
2021-02-08T12:00:00Z,00000200,21000000,,,,,,,0000.08,0000.18,0000.16,15.7,23.0,,00.0,0655.8,30.9
2021-02-08T12:01:00Z,00000200,21000000,,,,,,,0000.16,0000.40,0000.36,15.7,23.0,,00.0,0655.8,30.9
2021-02-08T12:02:00Z,00000200,21000000,,,,,,,0000.68,0000.64,0000.46,15.7,23.0,,00.0,0655.8,30.9
2021-02-08T12:03:00Z,00000200,61000000,,,,,,,0000.64,0000.49,0000.18,15.7,23.1,,00.0,0655.8,30.9
2021-02-08T12:04:00Z,00000200,41000000,-000.14,0000.04,0000.45,-000.29,0000.02,0000.46,0000.25,0000.22,0000.62,16.1,22.9,,00.0,0656.6,30.9
2021-02-08T12:05:00Z,00000200,01000000,-000.02,0000.52,0000.07,-000.03,0000.01,0000.24,0000.50,0000.30,-000.15,16.2,22.9,,00.0,0656.6,30.9
2021-02-08T12:06:00Z,00000200,01000000,0000.41,-000.21,0000.10,-000.74,-000.12,0000.13,-000.17,0000.39,0000.26,16.2,22.9,,00.0,0656.6,30.9
2021-02-08T12:07:00Z,00000200,01000000,0000.56,0000.03,0000.37,0000.04,0000.06,0000.49,0000.29,-000.36,-000.13,16.3,22.9,,00.0,0656.6,30.9
2021-02-08T12:08:00Z,00000200,01000000,0000.19,0000.19,0000.17,0000.49,-000.14,0000.10,0000.05,0000.36,0000.18,16.2,22.9,,00.0,0656.6,30.9
2021-02-08T12:09:00Z,00000200,01000000,0000.48,0000.03,0000.02,-000.46,-000.03,-000.17,-000.05,-000.14,-000.14,16.2,22.9,,00.0,0656.6,30.9
2021-02-08T12:10:00Z,00000200,01000000,-000.03,0000.24,-000.08,0000.15,-000.29,0000.23,-000.12,0000.10,0000.13,16.1,22.9,,00.0,0656.6,30.9
2021-02-08T12:11:00Z,00000200,01000000,0000.54,0000.07,0000.49,-000.00,0000.08,0000.20,0000.09,0000.02,-000.15,16.1,22.8,,00.0,0656.6,30.9
2021-02-08T12:12:00Z,00000200,01000000,0000.87,0000.11,0000.16,-000.31,0000.03,0000.12,0000.08,-000.15,0000.03,16.0,22.8,,00.0,0656.6,30.9
2021-02-08T12:13:00Z,00000200,01000000,0000.83,0000.06,0000.18,-000.23,-000.32,0000.21,-000.00,0000.02,-000.04,16.0,22.8,,00.0,0656.6,30.9
2021-02-08T12:14:00Z,00000200,01000000,0000.02,0000.05,-000.01,0000.06,-000.04,0000.17,0000.27,-000.06,0000.10,15.9,22.8,,00.0,0656.6,30.9
2021-02-08T12:15:00Z,00000200,01000000,0000.14,0000.21,-000.07,-000.25,-000.12,0000.08,0000.18,0000.29,0000.30,15.9,22.7,,00.0,0656.6,30.9
2021-02-08T12:16:00Z,00000200,01000000,0000.64,0000.05,0000.38,-000.56,-000.17,0000.02,0000.18,0000.43,0000.30,16.0,22.7,,00.0,0656.6,30.9
2021-02-08T12:17:00Z,00000200,01000000,-000.30,0000.35,0000.24,-000.12,-000.17,0000.13,0000.51,-000.08,-000.01,16.0,22.8,,00.0,0656.6,30.9
2021-02-08T12:18:00Z,00000200,01000000,0000.40,0000.21,0000.35,-000.38,0000.17,0000.43,-000.01,0000.13,0000.23,16.1,22.8,,00.0,0656.6,30.9
2021-02-08T12:19:00Z,00000200,01000000,0000.64,0000.02,0000.27,-000.54,0000.02,0000.33,0000.27,0000.19,0000.08,16.1,22.8,,00.0,0656.6,30.9
2021-02-08T12:20:00Z,00000200,01000000,-000.05,0000.39,0000.24,0000.00,0000.05,0000.13,-000.01,0000.07,0000.02,16.2,22.9,,00.0,0656.6,30.9
2021-02-08T12:21:00Z,00000200,01000000,0000.24,0000.45,0000.19,-000.24,0000.07,-000.26,-000.07,0000.29,-000.01,16.3,22.9,,00.0,0656.6,30.9
2021-02-08T12:22:00Z,00000200,01000000,-000.28,0000.51,0000.15,0000.50,-000.12,0000.20,-000.09,-000.18,0000.26,16.3,22.9,,00.0,0656.7,31.0
2021-02-08T12:23:00Z,00000200,01000000,-000.12,0000.18,0000.11,0000.57,0000.13,0000.13,-000.20,-000.20,-000.27,16.4,22.9,,00.0,0656.7,31.0
2021-02-08T12:24:00Z,00000200,01000000,0000.15,0000.57,0000.20,0000.20,-000.11,0000.02,-000.28,-000.18,-000.24,16.5,23.0,,00.0,0656.7,31.0
2021-02-08T12:25:00Z,00000200,01000000,0000.17,0000.25,0000.13,-000.28,-000.32,0000.15,-000.22,-000.15,-000.38,16.5,23.0,,00.0,0656.7,31.0
2021-02-08T12:26:00Z,00000200,01000000,-000.12,0000.24,0000.20,0000.10,-000.08,0000.17,0000.26,0000.07,0000.18,16.4,23.0,,00.0,0656.7,31.0
2021-02-08T12:27:00Z,00000200,01000000,0000.50,0000.33,0000.19,-000.53,0000.02,-000.13,-000.11,-000.19,-000.07,16.4,23.0,,00.0,0656.7,31.0
2021-02-08T12:28:00Z,00000200,01000000,0000.48,0000.28,0000.04,-000.16,-000.09,0000.01,-000.27,0000.00,-000.27,16.3,22.9,,00.0,0656.7,30.9
2021-02-08T12:29:00Z,00000200,01000000,-000.28,0000.40,0000.31,-000.00,0000.08,0000.17,0000.09,-000.36,-000.20,16.3,22.9,,00.0,0656.8,30.9
2021-02-08T12:30:00Z,00000200,01000000,0000.31,0000.20,0000.17,-000.39,0000.11,0000.13,-000.30,-000.16,0000.04,16.3,22.9,,00.0,0656.8,30.9
2021-02-08T12:31:00Z,00000200,01000000,0000.25,0000.57,0000.23,-000.34,-000.07,0000.37,-000.25,-000.13,0000.02,16.3,22.9,,00.0,0656.8,30.9
2021-02-08T12:32:00Z,00000200,01000000,-000.10,0000.61,0000.13,0000.39,0000.12,0000.14,-000.17,-000.38,-000.00,16.3,22.9,,00.0,0656.8,30.9
2021-02-08T12:33:00Z,00000200,01000000,0000.07,-000.23,0000.30,-000.03,-000.10,0000.31,-000.17,0000.35,-000.10,16.4,22.9,,00.0,0656.8,30.9
2021-02-08T12:34:00Z,00000200,01000000,0000.60,0000.31,-000.00,0000.22,0000.07,0000.05,-000.12,-000.24,-000.21,16.4,22.9,,00.0,0656.8,30.9
2021-02-08T12:35:00Z,00000200,01000000,0000.44,0000.29,0000.01,-000.08,-000.04,0000.04,-000.09,-000.23,0000.04,16.3,22.9,,00.0,0656.8,30.9
2021-02-08T12:36:00Z,00000200,01000000,0000.08,-000.15,-000.02,0000.08,0000.04,0000.03,0000.21,0000.42,-000.20,16.2,22.9,,00.0,0656.8,30.9
2021-02-08T12:37:00Z,00000200,01000000,-000.19,0000.04,0000.00,0000.10,0000.06,0000.23,-000.09,-000.34,-000.12,16.1,22.8,,00.0,0656.8,30.9
2021-02-08T12:38:00Z,00000200,01000000,0000.23,0000.40,0000.41,0000.07,-000.18,0000.23,0000.35,0000.47,0000.27,16.1,22.8,,00.0,0656.7,30.9
2021-02-08T12:39:00Z,00000200,01000000,0000.08,-000.03,0000.26,0000.10,-000.01,-000.36,-000.02,-000.09,0000.22,16.0,22.8,,00.0,0656.7,30.9
2021-02-08T12:40:00Z,00000200,01000000,0000.39,0000.53,0000.01,0000.02,-000.14,-000.10,0000.29,0000.19,-000.00,15.9,22.8,,00.0,0656.7,30.9
2021-02-08T12:41:00Z,00000200,01000000,-000.09,0000.19,0000.17,0000.06,-000.15,0000.20,-000.02,0000.02,-000.23,15.9,22.7,,00.0,0656.7,30.9
2021-02-08T12:42:00Z,00000200,01000000,0001.11,0001.04,0000.85,-000.36,0000.09,0000.01,0003.13,0003.03,0003.12,15.8,22.7,,00.0,0655.8,30.9
2021-02-08T12:43:00Z,00000200,01000000,0000.55,0000.25,0000.16,0000.18,0000.10,-000.01,0000.28,0000.26,0000.44,15.8,22.7,,00.0,0655.7,30.9
2021-02-08T12:44:00Z,00000200,01000000,0000.37,-000.01,0000.28,-000.03,0000.11,0000.08,0000.22,0000.10,0000.16,15.7,22.6,,00.0,0655.7,30.9
2021-02-08T12:45:00Z,00000200,01000000,0000.00,0000.06,0000.11,0000.05,0000.04,0000.39,0000.59,0000.67,0000.29,15.7,22.6,,00.0,0655.6,30.8
2021-02-08T12:46:00Z,00000200,01000000,0000.94,0000.28,-000.07,-000.80,0000.03,0000.06,0000.11,0000.49,0000.18,15.8,22.6,,00.0,0655.6,30.9
2021-02-08T12:47:00Z,00000200,01000000,0000.17,-000.00,0000.16,-000.28,-000.11,0000.01,0000.35,-000.12,0000.35,15.8,22.6,,00.0,0655.5,30.9
2021-02-08T12:48:00Z,00000200,01000000,-000.18,0000.25,0000.10,-000.55,-000.20,0000.16,0000.35,0000.49,0000.36,15.9,22.6,,00.0,0655.5,30.9
2021-02-08T12:49:00Z,00000200,01000000,-000.09,0000.36,-000.10,-000.12,0000.31,0000.22,0000.52,0000.56,0000.45,16.0,22.7,,00.0,0655.4,30.9
2021-02-08T12:50:00Z,00000200,01000000,0000.24,0000.42,-000.23,-000.15,0000.14,-000.14,0000.33,0000.14,0000.18,16.0,22.7,,00.0,0655.3,30.9
2021-02-08T12:51:00Z,00000200,01000000,0000.04,0000.37,0000.12,-000.55,-000.09,0000.04,-000.05,0000.32,0000.30,16.1,22.8,,00.0,0655.3,30.9
2021-02-08T12:52:00Z,00000200,01000000,-000.16,0000.13,0000.33,-000.06,0000.05,0000.10,0000.53,0000.26,-000.10,16.2,22.8,,00.0,0655.3,31.0
2021-02-08T12:53:00Z,00000200,01000000,0000.22,-000.15,-000.05,-000.03,0000.12,0000.17,0000.03,0000.04,0000.20,16.3,22.8,,00.0,0655.2,31.0
2021-02-08T12:54:00Z,00000200,01000000,-000.51,0000.10,-000.01,0000.14,-000.10,0000.13,0000.02,0000.08,0000.37,16.3,22.9,,00.0,0655.1,30.9
2021-02-08T12:55:00Z,00000200,01000000,0000.00,0000.17,0000.13,-000.50,0000.02,0000.08,0000.02,-000.06,-000.48,16.3,22.8,,00.0,0655.1,30.9
2021-02-08T12:56:00Z,00000200,01000000,0000.44,-000.12,0000.07,-000.18,-000.08,0000.32,0000.20,0000.07,0000.37,16.2,22.8,,00.0,0655.0,30.9
2021-02-08T12:57:00Z,00000200,41000000,,,,,,,-001.28,-000.98,-000.73,16.2,22.8,,00.0,0655.0,30.9
2021-02-08T12:58:00Z,00000200,61000000,,,,,,,0000.99,0000.67,0000.20,15.8,22.9,,00.0,0654.0,30.9
2021-02-08T12:59:00Z,00000200,21000000,,,,,,,0000.51,0000.30,0000.10,15.7,23.0,,00.0,0654.0,30.9
